Location: Unspecified
(0.0000°N, 0.0000°E)
Time: 01:13:16
(UTC+00:00)

Vanguard 1 - Pass Details

Date: 08 December 2017
Orbit: 649 x 3834 km, 34.3° (Epoch: 16 January)

Event Time Altitude Azimuth Distance (km) Brightness Sun altitude
Rises 18:58:30 0° 310° (NW) 3,025 13.0 -15.3°
Reaches altitude 10° 19:00:49 10° 312° (NW) 2,044 12.0 -15.8°
Maximum altitude 19:05:10 72° 37° (NE) 705 9.1 -16.8°
Enters shadow 19:09:57 12° 121° (ESE) 2,251 11.6 -17.9°
Drops below altitude 10° 19:10:20 10° 121° (ESE) 2,411 - -18.0°
Sets 19:13:17 0° 123° (ESE) 3,635 - -18.6°
